Location: Carrières
(48.9495°N, 2.0407°E)
Time: 19:17:47
(UTC+00:00)

ATLAS 2AS CENTAUR R/B - Pass Details

Date: 28 January 2023
Orbit: 986 x 1226 km, 63.7° (Epoch: 23 March)

Event Time Altitude Azimuth Distance (km) Brightness Sun altitude
Rises 17:17:54 0° 312° (NW) 4,041 6.1 -6.2°
Reaches altitude 10° 17:21:01 10° 321° (NW) 3,042 5.3 -6.7°
Maximum altitude 17:27:30 34° 25° (NNE) 1,722 3.5 -7.7°
Drops below altitude 10° 17:33:38 10° 89° (E) 2,875 4.3 -8.6°
Enters shadow 17:34:03 - 91° (E) 3,002 4.5 -8.7°
